Regional Weather Roundup
Issued by NWS

Home | Current Version | Previous Version | Text Only | Print | Product List | Glossary On
Versions: 1 2 3 4 5 6 7 8 9 10 11 12 13 14 15 16 17 18 19 20 21 22 23 24 25 26 27 28 29 30 31 32 33 34 35 36 37 38 39 40 41 42 43 44 45 46 47 48 49 50
000
ASUS43 KOAX 181410
RWRNE

WEATHER ROUNDUP FOR NEBRASKA
NATIONAL WEATHER SERVICE OMAHA NE
800 AM CST THU DEC 18 2014

NOTES: SATELLITE DATA IS BEING USED TO AUGMENT CLOUD COVER ABOVE
       12000 FEET.
       "FAIR" INDICATES FEW OR NO CLOUDS BELOW 12,000 FEET WITH NO
       SIGNIFICANT WEATHER AND/OR OBSTRUCTIONS TO VISIBILITY.

  * THESE STATIONS DO NOT REPORT WEATHER SUCH AS RAIN...SNOW OR FOG.

NEZ001>004-019>022-054>056-181500-
NEBRASKA PANHANDLE

CITY           SKY/WX    TMP DP  RH WIND       PRES   REMARKS
SCOTTSBLUFF    CLOUDY     8   5  87 W5        30.05R FOG     WCI   0
ALLIANCE       CLEAR     -1  -6  79 SW5       30.01R WCI -11
CHADRON        CLEAR      3  -1  83 W7        30.03S WCI  -9
KIMBALL        PTCLDY    19  15  82 W9        29.99R WCI   9
SIDNEY         PTCLDY    16  12  84 NW13      30.01R WCI   2
$$

NEZ057>060-069>072-079>082-181500-
SOUTHWEST NEBRASKA

CITY           SKY/WX    TMP DP  RH WIND       PRES   REMARKS
NORTH PLATTE   CLOUDY    24  22  91 SW6       30.09S WCI  17
IMPERIAL       CLOUDY    25  23  92 W6        30.07R WCI  18
LEXINGTON      CLOUDY    26  24  92 S3        30.13R
MCCOOK         CLOUDY    23  21  92 S5        30.12R WCI  17
OGALLALA       CLOUDY    23  23  99 W5        30.07R FOG     WCI  17
$$

NEZ005>010-023>029-035>040-094-181500-
NORTH CENTRAL NEBRASKA

CITY           SKY/WX    TMP DP  RH WIND       PRES   REMARKS
VALENTINE      CLOUDY    25  21  85 W6        30.07R WCI  18
AINSWORTH      CLOUDY    24  23  96 CALM      30.08S
BROKEN BOW     CLOUDY    24  23  96 SE6       30.11R FOG     WCI  17
O`NEILL        CLOUDY    23  22  96 CALM      30.15R
ORD            CLOUDY    23  20  88 SE6       30.14R WCI  16
THEDFORD       CLOUDY    26  24  94 SW5       30.07S WCI  20
$$

NEZ041-046>049-061>064-073>077-083>087-181500-
SOUTH CENTRAL NEBRASKA

CITY           SKY/WX    TMP DP  RH WIND       PRES   REMARKS
GRAND ISLAND   LGT SNOW  23  21  92 SE5       30.17S FOG     WCI  17
AURORA         CLOUDY    24  23  95 SE6       30.17F WCI  17
HASTINGS       CLOUDY    24  21  88 SE8       30.15S WCI  15
HEBRON         CLOUDY    25  23  92 CALM      30.20S FOG
HOLDREGE       CLOUDY    25  23  93 S3        30.14R
KEARNEY *      CLOUDY    25  21  86 SE5       30.15R WCI  19
YORK           CLOUDY    25 N/A N/A SE3       30.19S
$$

NEZ011>018-030>034-042>045-181500-
NORTHEAST NEBRASKA

CITY           SKY/WX    TMP DP  RH WIND       PRES   REMARKS
NORFOLK        CLOUDY    25  22  88 SE6       30.18F WCI  18
ALBION         CLOUDY    23  20  89 CALM      30.18S
BLAIR          LGT SNOW  26  24  89 E6        30.22S WCI  20
COLUMBUS *     PTCLDY    23  18  80 E3        30.21S
FREMONT        LGT SNOW  28  25  87 E6        30.22R WCI  21
TEKAMAH        CLOUDY    27  21  78 SE6       30.24S WCI  20
WAYNE          CLOUDY    25  22  87 S5        30.22R WCI  19
$$

NEZ050>053-065>068-078-088>093-181500-
SOUTHEAST NEBRASKA

CITY           SKY/WX    TMP DP  RH WIND       PRES   REMARKS
LINCOLN        CLOUDY    27  24  89 CALM      30.24R
OMAHA EPPLEY   LGT SNOW  26  23  88 SE6       30.26R FOG     WCI  19
BEATRICE       CLOUDY    26  24  96 CALM      30.21R FOG
FALLS CITY     FLURRIES  27  24  89 E5        30.23R WCI  22
NEBRASKA CITY  LGT SNOW  27  27 100 CALM      30.23R
PLATTSMOUTH    LGT SNOW  26  24  91 E5        30.23R WCI  21
$$

NEZ044-045-051>053-067-181500-
OMAHA AREA

CITY           SKY/WX    TMP DP  RH WIND       PRES   REMARKS
OMAHA EPPLEY   LGT SNOW  26  23  88 SE6       30.26R FOG     WCI  19
BLAIR          LGT SNOW  26  24  89 E6        30.22S WCI  20
FREMONT        LGT SNOW  28  25  87 E6        30.22R WCI  21
MILLARD        LGT SNOW  27  24  87 CALM      30.23S
OFFUTT AFB     LGT SNOW  27  23  86 E6        30.24R FOG     WCI  20
PLATTSMOUTH    LGT SNOW  26  24  91 E5        30.23R WCI  21
WAHOO          CLOUDY    27  24  89 SE5       30.22S FOG     WCI  21
$$



USA.gov is the U.S. government's official web portal to all federal, state and local government web resources and services.